{"data":{"norad_id":67063,"epoch":"2026-05-25T04:38:31.989120Z","epoch_age_seconds":58210,"freshness":"FRESH","line1":"1 67063U 25295E   26145.19342580 -.00000082  00000+0  89651-4 0  9998","line2":"2 67063  50.0026 107.9597 0000828 353.2224   6.8637 13.29328251 22442","mean_motion":13.29328251,"eccentricity":8.28e-5,"inclination_deg":50.0026,"raan_deg":107.9597,"arg_perigee_deg":353.2224,"mean_anomaly_deg":6.8637,"bstar":8.9651e-5,"rev_number":2244,"period_min":108.32538907653,"perigee_km":1148.6748025641,"apogee_km":1149.9213458124,"semimajor_km":7527.4350741883,"source":"CELESTRAK","updated_at":"2026-05-25T13:38:06.701782Z"}}